Regional Weather Roundup
Issued by NWS

Home | Current Version | Previous Version | Graphics & Text | Print | Product List | Glossary On
Versions: 1 2 3 4 5 6 7 8 9 10 11 12 13 14 15 16 17 18 19 20 21 22 23 24 25 26 27 28 29 30 31 32 33 34 35 36 37 38 39 40 41 42 43 44 45 46 47 48 49 50
000
ASUS43 KLOT 041108
RWRIL

ILLINOIS REGIONAL WEATHER ROUNDUP
NATIONAL WEATHER SERVICE CHICAGO/ROMEOVILLE IL
500 AM CST SUN DEC 04 2016

NOTE: "FAIR" INDICATES FEW OR NO CLOUDS BELOW 12,000 FEET WITH NO
SIGNIFICANT WEATHER AND/OR OBSTRUCTIONS TO VISIBILITY.

* THESE STATIONS ARE NOT UNDER NWS QUALITY CONTROL. THEY ALSO MAY NOT
  REPORT WEATHER SUCH AS PRECIPITATION OR FOG.

ILZ001-002-007-009-015-016-024-041200-
NORTHWEST ILLINOIS

CITY           SKY/WX    TMP DP  RH WIND       PRES   REMARKS
MOLINE         LGT SNOW  34  29  82 SE9       30.13F WCI  27
STERLING*      CLOUDY    33  27  78 SE5       30.17F WCI  29
SAVANNA*       LGT SNOW  31  30  95 SE6       30.16F WCI  26
$$

ILZ003-004-008-010-011-017-018-041200-
NORTH CENTRAL ILLINOIS

CITY           SKY/WX    TMP DP  RH WIND       PRES   REMARKS
ROCKFORD       CLOUDY    32  27  81 S6        30.20S WCI  26
FREEPORT*      CLOUDY    32  27  83 SE5       30.17F WCI  27
ROCHELLE*      CLOUDY    31  28  88 CALM      30.18S
DE KALB*       CLOUDY    31  28  88 SE5       30.18S WCI  26
$$

ILZ005-006-012>014-019>023-041200-
NORTHEAST ILLINOIS

CITY           SKY/WX    TMP DP  RH WIND       PRES   REMARKS
CHICAGO-OHARE  CLOUDY    30  25  81 SE3       30.18F
CHICAGO-MIDWAY CLOUDY    33  24  69 CALM      30.19F
AURORA         CLOUDY    32  28  85 NE3       30.18F
LANSING*       MOCLDY    30  28  93 E3        30.19F
JOLIET*        CLOUDY    32  29  88 CALM      30.18F
WAUKEGAN       CLOUDY    32  27  81 CALM      30.17F
DUPAGE AIRPORT CLOUDY    30  25  81 E5        30.16F WCI  25
KANKAKEE*      CLOUDY    32  28  84 E6        30.19F WCI  26
WHEELING       CLOUDY    31  25  78 SE5       30.20F WCI  26
MORRIS*        CLOUDY    32  29  91 CALM      30.18S
ROMEOVILLE*    CLOUDY    30  29  97 E3        30.18F
NORTHERLY ISL    N/A     33  24  70 S3          N/A
$$

LMZ740>746-041200-
SOUTHERN LAKE MICHIGAN

STATION/POSITION SKY/WX   TEMP    WIND        PRES    VSBY  WAVE
                          AIR SEA DIR/SP/G                  HT/PER
                          (F)     (DEG/KT/KT) (MB)    (MI)  (FT/S)
SOUTHERN BUOY              36 48  210/  4/  6 1022.7F         0
HARRISON CRIB              35     180/  6/  7   N/A
BURNHAM HARBOR             33     210/  2/  5   N/A
CALUMET HARBOR             33     160/  3/  3 1021.8F
BURNS HARBOR               33     170/  4/  8 1022.7F
MICHIGAN CITY              32     120/  5/  6   N/A
$$

ILZ025>027-034>036-040-047-049-050-058-095>099-041200-
WEST-CENTRAL ILLINOIS

CITY           SKY/WX    TMP DP  RH WIND       PRES   REMARKS
QUINCY         LGT RAIN  35  34  96 E7        30.10F FOG     WCI  29
GALESBURG*     LGT SNOW  32  30  93 E5        30.14F WCI  27
MACOMB*        LGT RAIN  33  32  94 SE9       30.16F WCI  26
JACKSONVILLE*  CLOUDY    35  32  88 E9        30.13F WCI  28
PITTSFIELD*    CLOUDY    37  35  93 E5        30.11F WCI  33
$$

ILZ028>032-037-038-041>044-048-051>054-059>061-041200-
CENTRAL ILLINOIS

CITY           SKY/WX    TMP DP  RH WIND       PRES   REMARKS
PONTIAC        CLOUDY    32  32  99 SE6       30.18S WCI  27
BLOOMINGTON    CLOUDY    31  29  92 E8        30.17F WCI  23
DECATUR        CLOUDY   N/A N/A N/A E8        30.15F
PEORIA         CLOUDY    34  29  82 SE5       30.16F WCI  30
LACON*         CLOUDY    32  28  84 CALM      30.16F
LINCOLN*       CLOUDY    35  31  88 E6        30.15F WCI  30
SPRINGFIELD    CLOUDY    36  31  82 E3        30.15F
TAYLORVILLE    CLOUDY    34  32  91 E7        30.13F WCI  28
$$

ILZ033-039-045-046-055>057-062-063-041200-
EAST-CENTRAL ILLINOIS

CITY           SKY/WX    TMP DP  RH WIND       PRES   REMARKS
CHAMPAIGN      CLOUDY    33  29  85 E8        30.16F WCI  26
RANTOUL*       CLOUDY    34  32  92 E6        30.17F WCI  29
MATTOON        CLOUDY    35  29  78 E6        30.14F WCI  30
PARIS*         CLOUDY    33  31  90 NE6       30.17F WCI  28
$$

ILZ079-100>102-041200-
SOUTHWEST ILLINOIS

CITY           SKY/WX    TMP DP  RH WIND       PRES   REMARKS
ALTON          CLOUDY    36  33  90 E5        30.11F WCI  32
BELLEVILLE     CLOUDY    37  36  94 E6        30.10F WCI  33
CAHOKIA*       CLOUDY    38  33  82 E5        30.11F WCI  34
SPARTA*        LGT RAIN  37  34  87 E7        30.11F WCI  32
$$

ILZ064>066-069>071-074>076-080>082-084>086-088>090-092>094-041200-
SOUTH-CENTRAL ILLINOIS

CITY           SKY/WX    TMP DP  RH WIND       PRES   REMARKS
CARBONDALE     CLOUDY    39  36  89 E7        30.11F WCI  34
CAIRO*         CLOUDY    39  37  94 E10       30.09F WCI  32
EFFINGHAM*     RAIN      36  33  87 E6        30.15F WCI  32
MARION         CLOUDY    41  37  87 E3        30.12F
CENTRALIA*     CLOUDY    37  34  88 E5        30.11F WCI  34
SALEM*         LGT RAIN  37  33  84 E6        30.13F WCI  33
METROPOLIS*    DRIZZLE   39  37  92 CALM      30.11F
$$

ILZ067-068-072-073-078-083-087-091-041200-
SOUTHEAST ILLINOIS

CITY           SKY/WX    TMP DP  RH WIND       PRES   REMARKS
LAWRENCEVILLE  LGT RAIN  38  31  76 E7        30.16F WCI  33
FLORA*         LGT RAIN  38  34  87 E5        30.16S WCI  34
FAIRFIELD*     RAIN      37  35  92 NE3       30.14F
HARRISBURG*    CLOUDY    39  36  86 E8        30.13F WCI  34
ROBINSON*      CLOUDY    36  32  86 E3        30.18F
CARMI*         LGT RAIN  38  35  89 E6        30.14S WCI  33
$$

ABBREVIATIONS USED IN REMARKS
   TC - TEMPERATURE IN CELSIUS
  WCI - WIND CHILL INDEX
   HX - HEAT INDEX
  VSB - VISIBILITY
$$




USA.gov is the U.S. government's official web portal to all federal, state and local government web resources and services.